Location: Nora Junction
(43.1400°N, 93.0163°W)
Time: 02:35:38
(UTC+00:00)

Cosmos 1602 - Pass Details

Date: 18 November 2025
Orbit: 368 x 376 km, 82.5° (Epoch: 08 December)

Event Time Altitude Azimuth Distance (km) Brightness Sun altitude
Rises 23:50:47 0° 357° (N) 2,285 6.9 -12.0°
Reaches altitude 10° 23:52:50 10° 3° (N) 1,428 5.8 -12.4°
Maximum altitude 23:55:51 50° 80° (E) 510 3.2 -12.9°
Drops below altitude 10° 23:58:52 10° 157° (SSE) 1,422 5.8 -13.4°
Sets 00:00:53 0° 163° (SSE) 2,274 6.9 -13.8°
